Regional Weather Roundup
Issued by NWS Sioux Falls, SD

Home | Current Version | Previous Version | Graphics & Text | Print | Product List | Glossary On
Versions: 1 2 3 4 5 6 7 8 9 10 11 12 13 14 15 16 17 18 19 20 21 22 23 24 25 26 27 28 29 30 31 32 33 34 35 36 37 38 39 40 41 42 43 44 45 46 47 48 49 50
000
ASUS43 KFSD 090202
RWRFSD

WEATHER ROUNDUP FOR SE SOUTH DAKOTA/SW MINNESOTA/NW IOWA
NATIONAL WEATHER SERVICE SIOUX FALLS SD
800 PM CST THU DEC 08 2016

NOTE: "FAIR" INDICATES FEW OR NO CLOUDS BELOW 12,000 FEET WITH NO
SIGNIFICANT WEATHER AND OR OBSTRUCTIONS TO VISIBILITY.


SDZ038>040-050-052>070-090300-
SOUTHEAST SOUTH DAKOTA

CITY           SKY/WX    TMP DP  RH WIND       PRES   REMARKS
CHAMBERLAIN    NOT AVBL
HURON          CLEAR      2  -1  88 NW7       30.64S WCI -11
MADISON        FAIR       7   5  92 NW14      30.57R WCI -10
MITCHELL       CLEAR      7   2  80 NW13      30.66S WCI  -9
SIOUX FALLS    CLEAR     10   6  84 NW12      30.59S WCI  -5
WINNER         FAIR       3  -3  76 NW6       30.60S WCI  -8
YANKTON        CLEAR     10   3  72 NW10      30.63S WCI  -3
$$

MNZ071-072-080-081-089-090-097-098-090300-
SOUTHWEST MINNESOTA

CITY           SKY/WX    TMP DP  RH WIND       PRES   REMARKS
FAIRMONT       FLURRIES  15   9  76 NW18G30   30.54S WCI  -2
JACKSON        MOCLDY    14   9  79 NW14G23   30.53R WCI  -1
LUVERNE        CLEAR     10   5  79 NW14      30.58S WCI  -5
MARSHALL       CLEAR     10   6  84 NW13      30.58R WCI  -5
MONTEVIDEO     FLURRIES  10   7  85 N9        30.59S WCI  -2
PIPESTONE      CLEAR     10   7  85 NW14      30.54S WCI  -5
REDWOOD FALLS  CLOUDY    13   6  74 NW9       30.56R WCI   1
TRACY          MOCLDY    13   9  82 NW14      30.56R WCI  -2
WINDOM         FLURRIES  14   9  79 NW16G25   30.53R WCI  -2
WORTHINGTON    CLEAR     10   6  84 NW16      30.54R WCI  -7
$$

IAZ001>003-012>014-020>022-031-032-NEZ013-014-SDZ071-090300-
NORTHWEST IOWA

CITY           SKY/WX    TMP DP  RH WIND       PRES   REMARKS
CHEROKEE       CLEAR     15   8  75 NW10      30.59R WCI   2
DENISON        CLEAR     14   9  79 NW9       30.58R WCI   2
ESTHERVILLE    MOCLDY    13   9  84 NW14      30.54R WCI  -2
LE MARS        CLEAR     14   7  73 NW9       30.63R WCI   2
ORANGE CITY    CLEAR     10   9  92 NW7       30.58S WCI   0
SHELDON        CLEAR     12   9  85 NW13G18   30.56S WCI  -3
SIOUX CITY     CLEAR     16   7  67 NW10      30.64R WCI   4
SPENCER        CLEAR     13   8  81 W21       30.56R WCI  -5
STORM LAKE     CLEAR     14   9  79 NW14      30.55S WCI  -1
$$

ABBREVIATIONS USED IN REMARKS
   TC - TEMPERATURE IN CELSIUS
  WCI - WIND CHILL INDEX
   HX - HEAT INDEX
  VSB - VISIBILITY




USA.gov is the U.S. government's official web portal to all federal, state and local government web resources and services.